NOAA 16 DEB, 41204

Orbit data source: Space-Track

NOAA 16 DEB, 41204 is space debris in SSO originally from a launch on Thu, 21 Sep 2000 UTC launched from the Air Force Western Test Range (AFWTR). Debris objects in space refer to the collection of defunct objects orbiting the Earth. Examples of debris include non-operational satellites, rocket bodies, and fragments generated from explosions, collisions, or faulty payload assembly.

Loading next visibility...
Identifier
41204, 2000-055DH
Orbit
SSO
Country
Flag of USUS
Related business
Manufacturer
Unknown
Mission
Spacecraft
Bus & Motor
Unknown
Mass
Unknown
Launch date (UTC)
2000-09-21 (25 years ago)
Launch vehicle
Unknown
Launch site
Air Force Western Test Range (AFWTR)
Object type
Payload
Rocket body
Debris
Shape & HBR
Unknown shape, 0.1 m
Radar Cross Section
Small (<0.1 m²)

Expand to show TLE details & history
Last TLE update: 12 hours ago

TLE from 12 hours ago
0 NOAA 16 DEB
1 41204U 00055DH  26035.11999260  .00003120  00000-0  14639-2 0  9995
2 41204  98.7122 100.6813 0021366 242.4009 117.4998 14.20712918523420
Epoch: 2026-02-04T02:52Z
TLE epoch observation values (Epoch: 2026-02-04T02:52:47.360Z)
Latitude
-0.00005°
Longitude
-76.80717°
Altitude
832.99 km
Speed
7.433 km/s
True Right ascension
06h 42m 43s
True Declination
0° 00' 00"
Sunlit
Object was in full shadow at epoch
Visualization orbit readout
Latitude
Unknown
Longitude
Unknown
Altitude
Unknown
Speed
Unknown
Apparent Right ascension
Unknown
Apparent Declination
Unknown
Sunlit
N/A
Visualization observer readout
Local Sidereal Time
17:05:17
Azimuth
Unknown
Elevation
Unknown
Doppler factor
Unknown
Orbital elements
Apogee altitude
835.48 km
Perigee altitude
804.721 km
Semi-major axis
7,198.238 km
Eccentricity
0.00214
Inclination
98.7122°
RAAN
100.6813°
Arg. of periapsis
242.4009°
True anomaly
117.7167°
Mean anomaly
117.4998°
Eccentric anomaly
117.60828°
Mean motion
3.55389 °/min
Orbital period
101.3 mins
BSTAR
0.0014639
Loading maneuver chart data...
Computing Atmospheric mass density...
Loading historical data...
Loading historical data...
Loading historical data...
Loading historical data...
Loading historical data...
Loading historical data...
Loading historical data...

Documentation

Showing up to 5 results
|